Flag for Switzerland Weather past 2 weeks in Geneva, Geneva, Switzerland

Now
68 °F

Mild.


Feels Like: 68 °F
Forecast: 41 / 51 °F
Wind: 8 mph from West

Location: Geneve-Cointrin

Current Time: Oct 21, 2014 at 2:18:58 PM

Latest Report: Oct 21, 2014 at 1:00 PM


Visibility: N/A

Pressure: 30.01 "Hg

Humidity: 56%

Dew point: 52 °F

Location of GenevaLocation

Historic Weather in Geneva — Graph

°F

Geneva temperature yesterday

Maximum temperature yesterday: 73 °F (at 2:00 PM)
Minimum temperature yesterday: 52 °F (at 7:00 AM)
Average temperature yesterday: 60 °F

Past Weeks' High & Low Weather Summary

 TemperatureHumidityPressure
High76 °F (Oct 9, 2:00 PM)96% (Oct 14, 7:00 AM)30.29 "Hg (Oct 14, 7:00 AM)
Low50 °F (Oct 14, 4:00 AM)37% (Oct 9, 2:00 PM)29.77 "Hg (Oct 13, 3:00 AM)
Average60 °F82%29.95 "Hg
* Reported Oct 6 1:00 PM — Oct 21 1:00 PM, Geneva, Weather by CustomWeather, © 2014

Note: Actual official high and low records may vary slightly from our data, if they occured in-between our weather recording intervals... More about our weather records

Advertising

Geneva weather history for previous 24 hours

 ConditionsComfort  
Time TempWeatherWind HumidityBarometerVisibility
1:00 PM
Oct 21
68 °FMild.8 mph56%30.01 "HgN/A
12:00 PM66 °FMild.14 mph69%30.03 "HgN/A
11:00 AM65 °FPartly sunny.13 mph73%30.04 "Hg19 mi
10:00 AM65 °FMild.13 mph78%30.04 "HgN/A
9:00 AM62 °FCool.6 mph89%30.03 "HgN/A
8:00 AM62 °FSprinkles. Low clouds.3 mph90%30.01 "Hg7 mi
7:00 AM61 °FCool.3 mph92%30.02 "HgN/A
6:00 AM60 °FCool.3 mph92%30.01 "HgN/A
5:00 AM62 °FLight rain. Overcast.8 mph90%30.01 "Hg9 mi
4:00 AM62 °FCool.9 mph87%30.02 "HgN/A
3:00 AM59 °FCool.3 mph91%30.04 "HgN/A
2:00 AM60 °FOvercast.1 mph92%30.05 "Hg19 mi
1:00 AM61 °FCool.1 mph87%30.06 "HgN/A
12:00 AM61 °FCool.2 mph85%30.05 "HgN/A
11:00 PM
Oct 20
61 °FPassing clouds.1 mph83%30.06 "Hg16 mi
10:00 PM61 °FCool.3 mph86%30.06 "HgN/A
9:00 PM62 °FCool.2 mph80%30.05 "HgN/A
8:00 PM62 °FPassing clouds.2 mph79%30.04 "Hg19 mi
7:00 PM64 °FMild.1 mph78%30.03 "HgN/A
6:00 PM66 °FMild.2 mph71%30.02 "HgN/A
5:00 PM67 °FPartly sunny.3 mph70%30.03 "Hg19 mi
4:00 PM70 °FMild.3 mph63%30.04 "HgN/A
3:00 PM70 °FMild.3 mph58%30.06 "HgN/A
2:00 PM73 °FPartly sunny.5 mph49%30.08 "Hg19 mi
Weather by CustomWeather, © 2014

See weather overviewHow to use our weather pages